Wetbulb
45.69 45.59 45.28 45.06 45.26 45.29 44.65 44.21 43.73 44.71 43.99 43.92 43.84 44.27 44.87 45.30 46.24 46.63 47.32 47.92 47.83 48.46 49.55 49.40 48.90 49.49 49.10 49.67 49.90 49.84 48.46 47.92 44.94 46.48 48.29 48.98 42.02 40.15 39.02 39.24 39.90 39.47 40.14
43.59 43.64 43.09 43.01 43.14 42.58 42.04 41.96 42.35 41.82 42.61 42.49 42.42 42.45 42.71 42.94 43.60 43.51 43.65 44.68 44.77 45.10 46.23 46.83 46.54 46.55 46.19 46.60 46.69 46.90 47.06 47.32 45.62 43.48 46.02 46.25 45.65 41.51 41.19 38.41 37.05 37.00 37.53
41.73 41.79 41.53 40.90 40.68 40.23 40.22 40.52 40.51 40.36 40.56 41.14 40.91 40.53 40.68 41.32 41.20 41.63 41.84 41.90 42.29 42.87 43.54 43.84 44.27 44.28 42.58 42.77 43.00 43.19 44.53 44.77 44.83 43.31 42.83 45.29 45.20 35.66 34.88 34.56 34.25 34.51 35.05
40.71 40.58 39.95 39.35 39.06 38.70 38.77 38.63 38.58 38.38 38.55 38.98 38.96 38.96 39.38 39.55 39.64 40.14 39.80 39.03 39.71 40.55 41.32 41.25 41.06 40.64 39.80 39.88 40.20 40.40 40.91 40.75 41.29 41.38 41.61 42.00 42.65 36.50 32.92 33.87 32.61 32.83 33.79
39.46 38.89 38.19 38.55 38.17 37.49 37.13 36.91 36.69 36.42 36.73 37.07 36.72 36.70 37.40 37.65 38.18 37.65 36.61 36.47 36.84 37.39 37.70 37.84 38.37 37.77 36.00 37.74 38.05 38.08 38.58 38.33 38.44 38.32 38.74 39.76 40.01 36.68 31.33 34.27 32.30 34.71 32.82
37.75 36.80 36.49 36.22 35.52 35.72 35.25 34.56 34.41 34.66 35.11 34.95 34.40 34.76 34.84 36.21 37.51 37.24 36.11 34.94 34.98 34.55 34.86 35.90 36.53 35.10 36.52 37.39 37.46 38.23 38.60 37.02 35.33 35.80 35.92 35.77 36.70 38.10 37.66 33.88 32.76 31.32 28.72
36.51 35.56 34.72 34.15 33.40 33.32 32.95 32.68 32.47 33.05 33.59 33.04 33.40 33.86 33.60 34.39 36.25 36.20 35.43 33.56 33.35 34.01 34.40 34.66 34.53 34.59 34.34 34.90 35.95 36.91 36.44 37.13 38.23 36.45 34.22 34.58 34.71 36.05 35.82 34.80 32.52 31.81 31.62
34.79 34.24 33.07 32.02 31.07 30.92 30.72 30.50 31.29 31.76 31.43 31.52 31.81 32.40 32.41 32.49 34.81 34.97 34.64 33.18 33.07 33.39 33.81 34.06 34.04 33.99 34.47 33.86 33.66 33.10 33.30 34.15 35.00 35.05 34.68 34.54 34.67 34.76 34.13 34.32 34.44 32.01 30.72
31.99 31.25 30.34 29.87 28.41 28.40 27.54 28.98 29.52 29.58 29.49 29.71 30.04 30.17 30.44 31.13 33.50 33.96 33.58 32.21 31.65 31.55 32.26 32.84 32.81 32.55 34.00 34.65 32.88 32.70 32.82 33.05 35.38 36.70 37.14 37.23 36.98 37.02 36.52 34.05 30.86 28.92 27.65
28.71 27.75 27.67 27.36 25.84 25.35 26.55 27.13 28.67 29.09 28.23 28.55 28.08 28.73 28.78 29.40 32.51 33.70 33.22 31.43 29.85 29.99 31.11 31.55 32.19 33.05 34.24 34.73 32.46 32.16 30.31 30.61 32.27 32.64 33.25 33.67 34.33 33.25 35.03 33.52 32.01 29.12 26.93
26.56 25.64 24.78 24.49 22.97 23.87 24.98 25.83 25.98 26.61 27.46 27.43 28.27 28.90 28.78 30.05 31.07 33.04 33.20 30.86 29.59 28.98 29.22 29.82 31.34 33.51 33.80 33.31 33.79 32.02 31.89 33.14 33.02 32.24 31.45 32.07 32.05 31.88 31.54 31.66 31.78 31.28 27.15
23.09 21.59 20.28 19.53 20.83 22.66 21.71 22.64 23.71 24.55 25.04 26.62 27.95 28.56 29.36 29.54 30.45 31.89 33.10 33.05 32.26 29.82 29.72 30.58 31.91 32.31 32.52 32.67 31.91 32.61 33.54 33.34 31.66 31.59 30.89 30.90 30.19 29.25 27.02 26.94 26.04 25.43 26.45
16.73 14.95 16.16 17.95 19.01 20.53 20.79 21.05 22.58 24.15 24.61 24.87 26.14 26.32 26.96 28.30 29.72 32.52 33.40 32.57 32.12 31.36 31.89 31.64 31.84 32.16 32.51 31.75 32.23 33.12 31.06 31.54 30.97 29.43 28.81 27.17 27.41 27.74 27.00 25.81 25.10 23.87 21.93
12.54 14.22 15.98 17.01 18.55 19.79 21.76 21.52 21.73 22.07 22.37 22.98 23.56 24.20 25.46 26.71 28.69 30.86 32.27 32.16 31.33 32.07 31.47 30.45 30.84 32.08 32.61 31.80 30.96 30.61 30.55 30.64 29.00 28.45 27.82 28.10 28.39 27.03 24.99 26.03 23.91 22.80 20.80
12.16 13.88 16.13 18.22 18.26 17.86 19.29 19.95 20.22 21.56 22.31 21.83 22.93 24.08 24.45 25.70 29.05 32.07 31.49 32.10 31.76 32.04 30.89 30.44 30.21 29.95 29.79 29.34 29.29 28.94 28.84 29.28 28.20 29.23 28.46 27.12 26.34 25.35 24.15 24.96 24.39 23.86 20.33
10.38 13.90 15.11 14.09 16.08 16.48 17.34 17.93 22.22 23.60 25.00 26.13 27.33 27.27 28.30 30.91 32.40 31.66 33.15 33.17 33.40 31.67 30.16 29.06 28.07 28.05 27.35 26.81 26.88 26.81 27.53 27.94 29.06 29.07 28.33 27.98 26.66 25.18 23.82 23.84 24.32 23.29 19.87
7.26 9.62 11.58 12.35 13.88 14.76 15.78 15.90 15.29 19.31 23.36 25.40 27.16 28.88 29.93 28.89 28.38 29.62 32.44 32.42 29.87 29.88 27.11 25.64 24.63 24.49 24.40 24.73 24.93 24.89 24.11 25.56 26.94 27.49 27.50 26.93 26.42 25.82 25.16 23.69 23.06 22.56 19.95
5.21 7.18 9.50 12.56 13.94 14.44 14.86 15.32 15.57 15.21 16.45 19.73 26.57 26.65 27.09 26.88 25.59 26.13 28.93 30.18 24.14 22.63 21.23 20.12 19.92 20.30 20.79 20.92 20.80 20.26 21.05 20.55 21.71 22.80 22.86 23.04 23.23 23.73 22.84 22.23 21.59 20.50 18.73
7.14 9.63 11.33 11.91 12.83 13.60 13.96 16.00 17.72 18.45 19.56 22.69 22.34 22.47 21.26 23.13 22.87 21.55 22.44 20.39 18.68 17.20 17.37 16.62 16.49 16.44 16.77 17.78 17.98 18.69 18.29 17.63 17.74 17.90 18.11 18.10 18.38 19.75 18.54 19.31 17.57 15.51 17.62
8.26 8.77 9.26 10.52 12.32 14.10 16.23 16.91 17.90 20.36 20.78 18.65 17.27 16.95 16.38 18.40 15.09 13.60 13.60 14.32 14.09 13.71 13.62 13.43 12.88 12.93 13.17 13.93 15.31 14.82 15.15 13.99 13.74 13.83 13.70 13.97 15.11 15.18 15.22 13.15 12.21 14.51 13.16
9.23 10.52 10.07 10.92 14.17 15.35 15.82 16.30 17.77 18.42 17.69 15.73 14.27 15.51 18.70 13.36 11.58 10.80 9.88 9.24 8.81 8.92 9.56 9.86 8.93 8.04 7.58 7.83 9.94 11.43 11.28 11.61 10.61 11.10 10.63 10.38 10.64 9.50 9.32 9.81 7.59 6.49 7.13
9.43 10.78 11.27 11.93 13.45 14.20 14.71 14.55 15.61 15.44 14.08 13.15 12.94 12.70 15.03 11.08 9.94 8.98 7.92 7.05 7.04 7.00 6.95 7.38 6.99 5.25 3.90 4.00 3.88 5.70 6.00 4.41 3.27 3.33 4.12 2.27 4.01 2.88 3.96 3.31 3.14 3.28 2.03
9.71 9.91 10.92 11.97 12.58 11.73 13.04 13.22 12.10 12.17 11.52 11.05 10.50 9.98 9.36 8.50 8.02 7.43 6.57 6.00 5.86 5.43 5.26 4.79 4.76 3.52 3.44 1.69 0.64 -0.65 -2.10 -3.79 -4.86 -5.50 -3.69 -2.25 -2.45 -2.75 -1.97 -1.71 -2.82 -3.05 -2.87
8.49 8.76 9.29 9.84 10.45 9.31 10.38 10.17 9.90 8.39 8.49 8.81 8.74 8.27 7.59 7.04 6.35 5.66 5.27 4.98 4.76 4.65 4.18 2.81 1.59 -0.66 -2.51 -3.79 -2.18 -3.29 -5.50 -6.71 -7.47 -7.90 -9.62 -7.16 -4.99 -4.61 -4.44 -6.48 -5.37 -7.80 -5.02
6.85 7.09 7.16 7.45 7.33 7.65 7.92 8.09 7.66 7.02 6.88 6.64 6.53 6.24 5.91 5.58 5.41 5.09 4.51 3.54 2.38 1.56 1.90 0.30 -0.73 -2.28 -4.77 -7.77 -9.18 -10.21 -8.39 -7.84 -12.09 -10.70 -11.42 -8.94 -9.86 -11.20 -11.51 -9.60 -9.96 -6.99 -7.77
5.15 5.13 5.40 5.78 5.67 5.78 5.63 5.56 5.88 5.71 5.25 5.63 5.34 4.69 4.09 3.59 3.63 3.45 2.95 1.09 0.13 -0.31 -0.91 -1.37 -2.49 -6.19 -6.91 -7.39 -7.86 -5.76 -6.06 0.43 -3.67 -6.91 -10.99 -7.98 -9.52 -9.34 -10.38 -10.87 -11.85 -9.96 -8.44
MSLP
1023.87 1024.05 1024.00 1024.13 1024.22 1024.29 1024.34 1024.28 1024.19 1024.04 1023.97 1023.80 1023.49 1023.23 1022.79 1022.33 1021.94 1021.71 1021.40 1021.03 1020.67 1020.31 1019.98 1019.63 1019.31 1019.05 1018.70 1018.38 1018.12 1017.76 1017.23 1017.10 1016.12 1013.11 1014.37 1014.46 1014.31 1014.29 1014.22 1014.13 1014.12 1014.10 1013.86
1024.55 1024.64 1024.78 1024.93 1024.87 1024.93 1024.95 1024.89 1024.86 1024.50 1024.30 1024.06 1023.79 1023.46 1023.16 1022.80 1022.39 1022.07 1021.65 1021.26 1020.83 1020.29 1019.87 1019.47 1019.05 1018.82 1018.49 1018.15 1017.68 1017.19 1016.76 1016.38 1015.83 1014.41 1013.10 1013.61 1013.49 1013.37 1013.37 1013.49 1013.50 1013.49 1013.41
1025.01 1025.20 1025.28 1025.38 1025.42 1025.51 1025.49 1025.41 1025.21 1024.99 1024.62 1024.33 1024.10 1023.76 1023.31 1022.89 1022.42 1022.06 1021.71 1021.28 1020.89 1020.34 1019.86 1019.43 1018.92 1018.64 1018.19 1017.91 1017.53 1017.00 1016.49 1015.97 1015.43 1014.64 1013.09 1013.12 1012.81 1012.91 1013.07 1013.04 1012.92 1013.02 1012.92
1025.29 1025.40 1025.42 1025.83 1025.85 1025.70 1025.82 1025.88 1025.80 1025.49 1025.13 1024.67 1024.44 1024.16 1023.58 1023.09 1022.58 1022.14 1021.81 1021.43 1020.96 1020.39 1019.87 1019.41 1019.03 1018.74 1018.28 1017.83 1017.43 1016.87 1016.30 1015.66 1015.12 1014.39 1013.39 1012.71 1012.59 1012.40 1012.69 1012.70 1012.51 1012.50 1012.12
1025.55 1025.77 1026.08 1026.17 1026.52 1026.53 1026.34 1026.22 1026.09 1025.89 1025.34 1025.02 1024.67 1024.19 1023.67 1023.15 1022.49 1022.23 1021.93 1021.42 1020.83 1020.09 1019.65 1019.07 1018.59 1018.34 1018.06 1017.69 1017.28 1016.35 1015.93 1015.24 1014.62 1013.98 1013.13 1012.52 1011.95 1012.27 1012.34 1011.80 1011.84 1011.74 1011.31
1026.30 1026.60 1026.86 1027.11 1026.84 1026.77 1026.72 1026.51 1025.92 1025.78 1025.31 1024.97 1024.51 1024.02 1023.49 1022.91 1022.31 1022.09 1021.80 1021.18 1020.58 1019.99 1019.15 1018.60 1018.10 1017.65 1017.18 1016.91 1016.43 1016.00 1015.63 1015.02 1014.31 1013.93 1013.04 1012.24 1011.55 1011.38 1011.08 1011.00 1011.06 1011.39 1011.06
1026.94 1027.03 1027.23 1027.08 1026.94 1026.87 1026.78 1026.41 1025.94 1025.59 1025.16 1024.75 1024.21 1023.70 1023.18 1022.66 1022.14 1021.75 1021.33 1020.85 1020.20 1019.47 1018.76 1018.12 1017.45 1017.16 1016.73 1016.15 1015.54 1015.13 1014.64 1014.48 1014.13 1013.64 1012.71 1012.07 1011.57 1011.15 1010.98 1010.52 1010.41 1010.41 1010.30
1027.31 1027.37 1027.12 1027.18 1027.21 1027.11 1026.87 1026.46 1025.95 1025.59 1025.08 1024.51 1023.87 1023.42 1022.83 1022.37 1021.84 1021.40 1020.88 1020.34 1019.68 1018.95 1018.38 1017.90 1017.29 1016.62 1016.22 1015.76 1015.10 1014.46 1013.89 1013.55 1013.20 1012.90 1012.41 1011.63 1011.25 1011.02 1010.60 1010.09 1009.75 1009.72 1009.95
1027.34 1027.41 1027.49 1027.53 1027.48 1027.25 1026.96 1026.40 1025.95 1025.54 1024.98 1024.38 1023.82 1023.15 1022.58 1021.73 1021.35 1021.01 1020.63 1019.89 1019.17 1018.45 1017.99 1017.54 1017.12 1016.39 1015.86 1015.44 1014.74 1013.92 1013.32 1012.83 1012.42 1012.06 1011.55 1011.09 1010.59 1010.28 1010.02 1009.53 1009.15 1009.52 1009.66
1027.75 1027.81 1027.83 1027.85 1027.65 1027.34 1027.09 1026.62 1026.10 1025.60 1024.86 1024.26 1023.53 1023.02 1022.27 1021.41 1021.13 1020.62 1020.29 1019.72 1018.79 1018.13 1017.50 1016.93 1016.59 1016.05 1015.42 1014.76 1014.29 1013.66 1012.87 1012.42 1012.01 1011.51 1011.09 1010.72 1010.37 1010.03 1009.50 1008.96 1008.81 1009.20 1009.69
1028.01 1028.12 1028.14 1028.01 1027.87 1027.59 1027.16 1026.75 1026.07 1025.40 1024.54 1023.78 1023.01 1022.48 1022.04 1021.35 1020.72 1020.35 1020.10 1019.34 1018.72 1017.92 1017.27 1016.55 1016.15 1015.55 1014.96 1014.55 1013.99 1013.50 1012.86 1012.15 1011.57 1011.18 1010.75 1010.36 1010.25 1010.04 1009.60 1009.45 1009.37 1009.48 1009.97
1028.55 1028.57 1028.38 1028.28 1028.10 1027.65 1027.20 1026.57 1026.01 1025.32 1024.44 1023.50 1022.63 1021.63 1021.17 1020.94 1020.51 1019.96 1019.37 1018.91 1018.53 1017.91 1017.07 1016.43 1015.82 1015.31 1014.68 1014.11 1013.62 1013.16 1012.57 1012.03 1011.55 1011.12 1010.80 1010.51 1010.47 1010.53 1010.72 1010.57 1010.69 1010.63 1010.66
1029.08 1029.05 1028.80 1028.37 1027.92 1027.42 1026.84 1026.20 1025.74 1025.11 1024.36 1023.32 1022.39 1021.47 1020.80 1020.53 1019.94 1019.18 1018.56 1018.34 1017.90 1017.36 1016.92 1016.30 1015.71 1015.00 1014.49 1014.01 1013.57 1013.05 1012.76 1012.26 1011.80 1011.38 1011.30 1011.39 1011.42 1011.48 1011.45 1011.52 1011.80 1011.71 1011.92
1029.33 1029.01 1028.59 1028.12 1027.54 1027.05 1026.60 1026.18 1025.52 1024.91 1024.02 1023.18 1022.35 1021.61 1020.72 1019.99 1019.33 1018.68 1018.23 1017.86 1017.29 1016.89 1016.51 1016.03 1015.51 1014.93 1014.38 1014.05 1013.72 1013.39 1012.92 1012.63 1012.51 1012.22 1011.97 1011.96 1012.02 1012.00 1012.21 1012.18 1012.38 1012.55 1012.80
1029.32 1028.91 1028.40 1027.83 1027.40 1026.90 1026.36 1025.75 1025.09 1024.59 1024.00 1023.02 1022.30 1021.57 1020.71 1019.59 1019.00 1018.50 1017.95 1017.30 1016.97 1016.67 1016.37 1015.93 1015.41 1015.01 1014.61 1014.32 1014.04 1013.76 1013.34 1012.98 1012.76 1012.64 1012.63 1012.56 1012.54 1012.73 1012.83 1012.88 1012.83 1012.99 1013.38
1029.31 1028.75 1028.34 1027.94 1027.33 1026.71 1025.82 1024.77 1024.56 1023.85 1023.18 1022.55 1021.79 1020.99 1020.13 1019.37 1018.70 1018.12 1017.40 1017.05 1016.78 1016.60 1016.44 1016.18 1015.95 1015.70 1015.40 1015.21 1014.99 1014.64 1014.19 1013.78 1013.45 1013.11 1013.13 1013.14 1013.18 1013.30 1013.39 1013.42 1013.37 1013.62 1013.89
1029.58 1029.08 1028.39 1027.86 1027.31 1026.54 1025.88 1025.29 1024.07 1023.31 1022.86 1021.84 1021.03 1020.19 1019.71 1019.31 1018.89 1018.24 1017.46 1017.12 1016.97 1016.87 1016.99 1017.00 1016.97 1016.80 1016.55 1016.30 1016.03 1015.68 1015.28 1014.94 1014.55 1014.13 1013.98 1013.93 1013.88 1013.88 1013.91 1013.99 1014.08 1014.22 1014.59
1029.28 1028.91 1028.44 1027.65 1027.04 1026.49 1025.89 1025.23 1024.58 1023.59 1022.38 1021.48 1020.45 1020.16 1019.83 1019.57 1019.25 1018.69 1017.90 1017.31 1017.63 1017.94 1018.14 1018.19 1018.12 1017.90 1017.65 1017.36 1017.07 1016.75 1016.40 1016.11 1015.72 1015.38 1015.23 1015.12 1014.96 1014.81 1014.76 1014.80 1014.94 1015.03 1015.32
1028.80 1028.21 1027.81 1027.36 1026.86 1026.30 1025.75 1024.99 1024.12 1023.20 1022.13 1021.23 1020.80 1020.54 1020.52 1020.09 1019.69 1019.40 1018.99 1018.68 1018.88 1019.07 1019.21 1019.25 1019.21 1019.05 1018.79 1018.45 1018.17 1017.79 1017.56 1017.34 1017.06 1016.75 1016.57 1016.35 1016.13 1015.85 1015.86 1015.87 1015.97 1016.08 1016.08
1028.34 1027.87 1027.59 1027.12 1026.45 1025.85 1025.23 1024.37 1023.59 1022.78 1022.19 1021.93 1021.69 1021.48 1021.15 1020.61 1020.48 1020.50 1020.48 1020.20 1020.20 1020.34 1020.37 1020.30 1020.26 1020.11 1019.87 1019.53 1019.20 1018.90 1018.57 1018.41 1018.18 1017.97 1017.79 1017.64 1017.42 1017.20 1017.11 1017.07 1017.12 1017.00 1017.15
1027.91 1027.47 1026.92 1026.69 1025.95 1025.32 1024.75 1024.09 1023.40 1022.88 1022.67 1022.58 1022.48 1022.28 1021.83 1021.84 1021.67 1021.54 1021.69 1021.57 1021.49 1021.53 1021.49 1021.37 1021.27 1021.11 1020.93 1020.70 1020.32 1019.96 1019.76 1019.58 1019.44 1019.21 1019.04 1018.84 1018.54 1018.45 1018.26 1018.09 1018.25 1018.27 1018.27
1027.47 1026.96 1026.65 1026.09 1025.50 1024.97 1024.45 1024.07 1023.57 1023.31 1023.10 1023.00 1022.87 1022.78 1022.57 1022.70 1022.63 1022.57 1022.41 1022.37 1022.36 1022.37 1022.37 1022.17 1022.00 1021.90 1021.88 1021.72 1021.48 1021.08 1020.80 1020.78 1020.72 1020.55 1020.18 1019.85 1019.65 1019.42 1019.15 1019.24 1019.30 1019.22 1019.23
1026.96 1026.50 1026.11 1025.75 1025.26 1024.79 1024.39 1024.02 1023.95 1023.58 1023.33 1023.42 1023.39 1023.25 1023.13 1023.13 1023.16 1023.15 1023.17 1022.89 1022.77 1022.72 1022.66 1022.53 1022.32 1022.30 1022.27 1022.17 1022.06 1022.00 1021.70 1021.71 1021.70 1021.53 1021.16 1020.74 1020.49 1020.39 1020.08 1020.30 1020.25 1020.03 1019.98
1026.47 1026.10 1025.82 1025.67 1025.24 1024.99 1024.54 1024.29 1024.06 1024.03 1023.96 1023.69 1023.66 1023.70 1023.61 1023.52 1023.49 1023.37 1023.36 1023.28 1023.03 1022.84 1022.74 1022.71 1022.65 1022.60 1022.57 1022.49 1022.25 1022.09 1022.00 1021.92 1021.82 1021.71 1021.66 1021.44 1021.12 1020.95 1020.72 1020.71 1020.76 1020.82 1020.69
1026.22 1025.74 1025.44 1025.54 1025.33 1024.92 1024.72 1024.40 1024.36 1024.29 1024.07 1023.95 1023.87 1023.80 1023.83 1023.79 1023.55 1023.43 1023.33 1023.29 1023.24 1023.01 1022.67 1022.61 1022.57 1022.50 1022.47 1022.42 1022.32 1022.11 1021.89 1021.78 1021.69 1021.57 1021.55 1021.51 1021.49 1021.32 1021.20 1021.06 1021.02 1020.90 1021.01
1025.97 1025.64 1025.42 1025.47 1025.36 1025.10 1024.87 1024.70 1024.52 1024.29 1024.07 1023.84 1023.89 1023.89 1023.76 1023.76 1023.58 1023.40 1023.28 1023.17 1023.07 1022.95 1022.75 1022.51 1022.38 1022.35 1022.22 1022.00 1021.74 1021.60 1021.57 1021.35 1021.15 1021.06 1021.24 1021.31 1021.43 1021.31 1021.28 1021.22 1021.16 1021.18 1021.17
Wind_Speed
9 9 9 8 9 8 8 8 8 8 9 9 9 9 9 9 9 8 9 10 10 11 10 11 12 12 9 9 9 9 10 10 15 21 12 11 5 7 7 9 9 10 9
8 9 9 9 9 9 9 9 9 9 8 8 9 9 9 10 9 9 10 10 11 11 12 12 13 9 12 14 11 12 12 12 11 20 18 12 13 9 8 8 8 6 8
8 8 9 9 9 8 8 9 9 9 9 9 8 8 9 9 9 9 9 10 11 11 12 12 13 13 14 12 13 12 11 10 11 12 18 12 11 1 4 4 4 6 6
7 7 7 7 7 8 8 9 10 9 10 10 9 10 10 10 10 9 10 11 12 11 12 12 12 13 13 12 11 12 11 11 12 12 13 14 11 2 2 5 6 6 9
8 8 8 6 8 8 7 7 7 7 8 9 9 9 9 8 7 8 11 11 12 13 12 12 11 13 16 17 12 14 12 11 10 11 12 12 12 6 6 4 7 7 5
6 4 5 5 4 5 6 7 7 7 7 7 8 9 9 8 13 15 14 11 12 12 13 13 12 11 15 20 22 24 20 13 13 10 11 13 15 10 5 6 7 4 5
3 3 3 4 6 7 7 8 8 9 9 9 10 10 11 11 15 18 18 11 12 12 13 13 12 9 12 13 18 19 19 18 19 14 14 14 14 10 7 8 8 7 8
2 2 3 6 6 7 8 8 8 9 10 10 11 11 11 10 18 20 19 13 12 14 14 13 14 16 14 15 15 15 14 12 11 9 12 14 12 10 10 10 12 8 0
3 5 6 6 7 8 8 10 10 10 11 10 10 12 12 12 19 21 18 11 12 15 14 15 14 16 20 22 14 14 13 11 10 17 20 23 23 23 17 9 6 4 3
6 7 7 7 7 9 10 11 10 10 11 9 12 12 15 14 18 20 17 10 14 12 14 13 14 16 21 21 13 11 14 14 9 11 8 12 12 11 16 7 2 5 2
5 7 7 8 9 9 10 10 10 11 12 12 13 13 15 14 15 20 21 11 10 11 11 11 9 18 21 21 20 10 12 14 11 8 7 6 6 6 3 3 4 2 3
6 7 8 8 8 8 10 9 10 11 12 12 12 12 8 11 17 18 20 19 18 10 10 9 8 20 22 21 16 17 18 13 6 5 5 3 3 5 6 7 8 8 8
5 7 7 8 8 8 9 10 9 9 9 10 9 11 11 9 10 19 18 14 18 11 7 13 21 19 18 12 14 12 8 6 5 4 4 4 4 4 4 4 6 9 12
6 7 7 8 8 8 7 7 8 8 9 9 9 10 11 11 9 9 6 9 9 7 9 8 11 12 9 7 6 8 4 4 4 5 3 3 3 4 5 4 5 4 5
5 6 7 6 8 9 8 8 8 9 10 11 10 10 11 11 10 15 17 9 6 6 7 5 4 4 5 5 5 7 6 5 5 5 4 4 4 4 5 4 4 4 4
6 6 6 7 7 7 8 10 13 18 21 22 24 18 10 19 16 20 20 14 9 6 3 3 4 5 5 6 6 7 7 8 5 4 4 4 4 4 3 3 3 4 4
6 7 7 7 7 7 7 9 12 9 18 19 18 17 15 12 15 17 18 3 10 4 3 5 5 5 6 6 6 6 7 7 7 7 6 5 4 3 4 4 3 3 4
6 8 7 6 6 7 7 8 8 10 10 9 11 13 10 12 13 16 17 5 4 6 4 4 4 5 6 6 6 6 6 7 7 7 7 7 7 6 5 5 5 3 3
6 6 5 6 6 7 8 8 8 9 9 7 7 9 10 14 8 12 14 6 4 5 4 4 5 5 6 6 6 6 6 6 6 6 6 6 6 5 5 5 4 5 4
6 9 7 6 6 7 7 7 7 7 6 5 5 6 7 5 5 6 6 6 5 5 5 5 5 5 6 6 6 6 6 6 6 6 6 6 6 5 5 4 5 3 4
5 6 6 6 6 6 6 6 6 5 4 3 3 7 12 5 4 5 4 5 5 5 5 5 4 4 5 5 6 6 5 5 5 5 5 5 5 4 4 3 3 3 3
6 5 5 6 5 5 5 5 5 4 3 3 3 4 9 4 4 4 4 4 4 4 3 3 3 3 4 4 4 5 4 4 4 5 4 3 4 3 3 3 3 3 2
5 5 5 5 5 5 4 3 3 3 2 2 3 3 3 3 3 3 3 3 3 3 3 3 3 3 3 2 2 3 3 3 3 3 3 3 3 3 3 3 3 3 3
4 4 4 4 3 4 3 3 2 2 3 2 2 2 3 2 2 2 3 3 3 2 2 2 1 2 2 2 2 2 1 2 2 2 3 3 3 4 3 2 2 2 2
4 3 3 3 4 3 4 2 2 2 1 2 2 2 3 4 4 3 3 3 3 3 3 2 2 3 4 4 5 5 4 5 4 2 2 2 2 3 1 1 1 1 1
4 3 3 3 4 3 3 4 4 3 3 3 3 3 4 4 4 4 3 3 3 3 4 3 4 6 7 5 6 6 6 7 6 6 3 2 2 2 1 2 1 2 1
Wind_Direction
62 58 57 50 43 41 34 25 14 359 357 352 347 339 335 331 331 323 314 307 302 298 292 285 282 280 277 275 270 264 255 249 264 282 277 281 238 227 232 229 238 243 245
56 59 52 43 35 31 23 15 5 360 351 344 342 337 332 328 326 321 315 313 307 301 297 292 285 287 284 282 280 274 270 268 266 271 280 274 266 227 241 231 237 240 247
55 50 46 37 28 21 12 2 357 349 343 337 332 327 321 317 315 314 311 311 304 298 297 295 294 294 289 289 286 284 280 277 277 279 281 281 276 183 237 239 227 239 243
56 48 48 28 12 10 0 355 347 342 332 333 331 325 323 319 314 310 324 314 305 299 298 293 290 288 287 291 288 286 285 281 276 272 272 281 279 265 228 251 255 227 251
40 33 20 11 358 347 343 332 325 309 310 311 311 307 308 307 302 321 309 303 298 297 292 288 283 285 288 282 281 281 278 277 278 281 279 280 277 258 233 230 245 263 246
34 19 354 338 329 332 329 319 311 306 308 307 299 296 298 297 305 303 303 298 293 293 293 291 287 285 289 289 288 281 277 281 281 281 280 277 281 280 271 239 243 245 272
355 351 323 336 339 340 327 323 317 315 312 305 300 300 297 296 296 298 301 297 293 287 287 289 290 284 288 289 291 285 283 280 275 281 280 278 284 288 292 281 248 235 250
321 329 2 350 338 327 322 315 314 314 311 308 304 301 297 296 300 303 304 297 289 287 288 291 291 294 294 297 296 293 289 281 268 268 271 282 283 284 267 264 268 246 70
8 354 350 345 329 323 320 320 319 316 311 308 303 302 298 297 306 307 309 304 297 299 300 297 298 300 300 303 297 294 294 291 279 273 274 283 289 294 294 286 231 199 196
0 340 335 334 327 323 317 313 310 304 300 305 305 306 306 302 304 308 314 307 302 305 303 303 294 293 295 303 304 297 297 303 304 297 277 288 293 293 292 262 213 214 100
346 336 331 328 320 307 305 306 305 301 298 299 299 300 299 302 304 308 307 306 302 302 302 307 302 303 310 309 307 301 296 306 308 297 297 298 302 323 352 36 52 36 105
341 327 320 314 306 304 301 301 302 301 294 292 293 295 296 303 303 297 300 310 311 299 299 300 305 313 313 313 315 313 315 320 307 307 307 332 24 36 28 43 50 57 45
334 306 299 300 297 295 302 303 302 297 295 297 298 302 304 305 305 304 297 296 314 303 304 306 312 316 318 324 325 341 349 335 336 341 21 33 36 51 60 65 63 70 58
299 305 308 303 304 297 298 295 291 293 293 296 301 299 303 304 294 298 314 302 296 297 305 308 313 319 330 346 339 350 350 355 352 356 28 48 44 51 45 36 55 50 61
297 297 298 299 308 303 288 291 290 283 284 295 292 292 295 293 300 303 306 304 305 309 325 312 321 339 353 358 1 10 12 12 22 23 31 51 59 51 48 44 39 48 62
310 310 313 304 303 301 302 303 292 292 293 292 294 287 282 284 305 324 311 306 323 352 303 331 357 356 10 6 5 7 19 16 14 29 40 41 47 47 53 45 36 60 79
283 292 296 301 297 301 304 302 307 306 301 301 305 311 318 338 333 332 328 8 47 30 9 12 11 6 5 6 4 7 12 9 3 17 25 29 38 38 31 46 44 67 79
270 273 273 278 289 292 293 297 296 299 309 310 320 333 343 339 346 351 342 62 45 37 33 19 10 7 9 9 9 9 9 8 11 18 21 21 14 19 20 26 34 30 75
286 284 289 290 285 287 285 279 289 293 291 312 339 339 349 330 349 15 22 46 52 48 28 30 17 11 10 8 8 9 17 12 12 17 20 20 14 20 32 25 68 36 30
266 257 265 281 283 285 284 294 298 304 329 342 346 352 345 348 19 22 23 32 40 37 25 25 15 14 10 8 7 10 12 15 14 15 15 14 9 15 22 20 18 21 36
279 279 273 274 269 288 291 298 306 316 329 340 358 351 11 12 24 35 27 32 33 27 17 17 12 12 8 3 360 9 11 13 13 7 12 6 4 12 358 13 23 31 37
268 281 280 282 286 289 308 304 311 320 336 337 348 1 11 22 22 22 38 37 28 28 11 357 9 14 10 2 355 356 10 15 7 355 351 351 347 8 349 24 9 33 49
262 274 281 281 286 296 290 311 316 324 344 344 343 351 12 15 10 13 2 7 8 3 2 356 358 354 6 350 357 347 1 7 337 342 335 344 0 352 359 11 13 7 33
263 269 281 285 290 296 304 308 323 327 334 348 346 345 347 345 333 330 324 326 326 328 332 332 331 328 329 323 322 334 4 328 335 329 353 345 346 354 355 5 24 28 5
269 278 289 291 295 302 301 292 293 290 294 307 310 311 305 298 295 293 292 293 298 299 301 297 283 298 292 296 283 290 294 312 290 303 296 300 346 329 345 331 0 346 23
267 268 277 280 278 286 286 288 283 278 275 278 280 282 285 284 283 282 282 279 283 291 290 276 270 272 279 275 271 270 271 272 260 230 219 229 245 264 231 258 252 284 270